Location: Cedar Brake
(32.2526°N, 97.8459°W)
Time: 20:06:48
(UTC+00:00)

USA 281 - Pass Details

Date: 22 April 2026
Orbit: 1079 x 1080 km, 106.0° (Epoch: 5 January)

Event Time Altitude Azimuth Distance (km) Brightness Sun altitude
Exits shadow 09:45:37 25° 298° (WNW) 2,045 4.4 -25.4°
Drops below altitude 10° 09:48:38 10° 319° (NW) 2,922 5.4 -24.9°
Sets 09:51:25 0° 328° (NNW) 3,881 6.2 -24.4°
